LAN310 SCCI-SCTE

Flight info

Callsign LAN310
Flight time 1h 54m
Altitude 36000
Route DCT SIRUN UQ802 CAUKE CAUKE5B
Aircraft A320/M-SDE3FGHIRWY/LB1

Departure

Time 2026-05-05 18:59
Airport President Carlos Ibáñez International Airport (SCCI)

Arrival

Time 2026-05-05 20:53
Airport El Tepual International Airport (SCTE)
Time Latitude Longitude Altitude Speed Heading
2026-05-05 18:34 -53.00449 -70.84450 150 ft 0 kts 179°
2026-05-05 18:49 -53.00448 -70.84450 149 ft 2 kts 179°
2026-05-05 18:49 -53.00423 -70.84453 149 ft 4 kts 169°
2026-05-05 18:50 -53.00398 -70.84465 148 ft 4 kts 146°
2026-05-05 18:50 -53.00383 -70.84494 148 ft 3 kts 90°
2026-05-05 18:50 -53.00382 -70.84499 148 ft 0 kts 88°
2026-05-05 18:52 -53.00382 -70.84489 148 ft 2 kts 88°
2026-05-05 18:53 -53.00382 -70.84456 146 ft 4 kts 88°
2026-05-05 18:53 -53.00380 -70.84402 146 ft 6 kts 81°
2026-05-05 18:53 -53.00354 -70.84370 146 ft 5 kts 358°
2026-05-05 18:53 -53.00313 -70.84373 146 ft 7 kts 358°
2026-05-05 18:54 -53.00260 -70.84371 146 ft 8 kts 12°
2026-05-05 18:54 -53.00247 -70.84275 146 ft 10 kts 89°
2026-05-05 18:54 -53.00245 -70.84160 146 ft 9 kts 88°
2026-05-05 18:54 -53.00244 -70.84073 146 ft 6 kts 89°
2026-05-05 18:55 -53.00243 -70.84015 146 ft 4 kts 89°
2026-05-05 18:55 -53.00243 -70.83973 146 ft 5 kts 90°
2026-05-05 18:55 -53.00243 -70.83900 146 ft 8 kts 90°
2026-05-05 18:55 -53.00241 -70.83777 146 ft 13 kts 86°
2026-05-05 18:56 -53.00237 -70.83618 146 ft 14 kts 89°
2026-05-05 18:56 -53.00235 -70.83460 146 ft 14 kts 89°
2026-05-05 18:56 -53.00233 -70.83305 146 ft 13 kts 89°
2026-05-05 18:56 -53.00231 -70.83155 146 ft 13 kts 89°
2026-05-05 18:57 -53.00200 -70.83032 146 ft 12 kts 23°
2026-05-05 18:57 -53.00125 -70.83038 147 ft 10 kts 354°
2026-05-05 18:57 -53.00065 -70.83049 147 ft 7 kts 340°
2026-05-05 18:57 -53.00060 -70.83121 147 ft 7 kts 265°
2026-05-05 18:58 -53.00060 -70.83159 147 ft 0 kts 270°
2026-05-05 18:58 -53.00060 -70.83168 147 ft 5 kts 270°
2026-05-05 18:58 -53.00067 -70.83590 144 ft 73 kts 267°
2026-05-05 18:58 -53.00080 -70.84780 152 ft 131 kts 269°
2026-05-05 18:59 -53.00106 -70.86530 334 ft 159 kts 266°
2026-05-05 18:59 -52.99997 -70.88371 948 ft 166 kts 294°
2026-05-05 18:59 -52.99333 -70.89986 1497 ft 182 kts 309°
2026-05-05 18:59 -52.98431 -70.91638 1798 ft 205 kts 312°
2026-05-05 19:00 -52.97390 -70.93473 2151 ft 231 kts 311°
2026-05-05 19:00 -52.96254 -70.95497 2801 ft 244 kts 310°
2026-05-05 19:00 -52.95099 -70.97597 3715 ft 248 kts 309°
2026-05-05 19:00 -52.93939 -70.99745 4607 ft 253 kts 309°
2026-05-05 19:01 -52.92764 -71.01951 5467 ft 257 kts 308°
2026-05-05 19:01 -52.91576 -71.04203 6359 ft 261 kts 308°
2026-05-05 19:01 -52.90380 -71.06482 7218 ft 263 kts 309°
2026-05-05 19:01 -52.89142 -71.08754 8072 ft 267 kts 311°
2026-05-05 19:02 -52.87851 -71.10974 8929 ft 269 kts 312°
2026-05-05 19:02 -52.86527 -71.13192 9780 ft 272 kts 313°
2026-05-05 19:02 -52.85161 -71.15470 10211 ft 289 kts 313°
2026-05-05 19:02 -52.83708 -71.17902 10405 ft 312 kts 313°
2026-05-05 19:03 -52.82146 -71.20517 10871 ft 323 kts 313°
2026-05-05 19:03 -52.80554 -71.23181 11548 ft 328 kts 313°
2026-05-05 19:03 -52.78944 -71.25874 12261 ft 332 kts 313°
2026-05-05 19:03 -52.77313 -71.28601 12972 ft 335 kts 313°
2026-05-05 19:04 -52.75663 -71.31364 13662 ft 339 kts 313°
2026-05-05 19:04 -52.74001 -71.34157 14270 ft 343 kts 313°
2026-05-05 19:04 -52.72324 -71.36972 14881 ft 346 kts 314°
2026-05-05 19:04 -52.70582 -71.39741 15482 ft 349 kts 315°
2026-05-05 19:05 -52.68777 -71.42457 16076 ft 353 kts 316°
2026-05-05 19:05 -52.66931 -71.45164 16695 ft 356 kts 317°
2026-05-05 19:05 -52.65064 -71.47882 17311 ft 360 kts 317°
2026-05-05 19:05 -52.63181 -71.50632 17930 ft 363 kts 316°
2026-05-05 19:06 -52.61292 -71.53412 18499 ft 366 kts 316°
2026-05-05 19:06 -52.59390 -71.56234 19088 ft 369 kts 316°
2026-05-05 19:06 -52.57481 -71.59072 19698 ft 371 kts 316°
2026-05-05 19:06 -52.55589 -71.61883 20293 ft 373 kts 316°
2026-05-05 19:07 -52.53652 -71.64750 20883 ft 376 kts 316°
2026-05-05 19:07 -52.51703 -71.67623 21453 ft 378 kts 316°
2026-05-05 19:07 -52.49740 -71.70514 21999 ft 380 kts 316°
2026-05-05 19:07 -52.47765 -71.73423 22538 ft 383 kts 316°
2026-05-05 19:08 -52.45776 -71.76350 23063 ft 385 kts 316°
2026-05-05 19:08 -52.43775 -71.79290 23558 ft 387 kts 316°
2026-05-05 19:08 -52.41762 -71.82246 23986 ft 389 kts 316°
2026-05-05 19:08 -52.39740 -71.85220 24406 ft 391 kts 316°
2026-05-05 19:09 -52.37707 -71.88200 24831 ft 393 kts 316°
2026-05-05 19:09 -52.35663 -71.91186 25234 ft 395 kts 316°
2026-05-05 19:09 -52.33606 -71.94186 25652 ft 397 kts 316°
2026-05-05 19:09 -52.31540 -71.97195 26045 ft 399 kts 317°
2026-05-05 19:10 -52.29460 -72.00220 26434 ft 401 kts 317°
2026-05-05 19:10 -52.27376 -72.03255 26828 ft 403 kts 316°
2026-05-05 19:10 -52.25282 -72.06304 27216 ft 405 kts 317°
2026-05-05 19:10 -52.23175 -72.09365 27603 ft 407 kts 317°
2026-05-05 19:11 -52.21080 -72.12406 27989 ft 409 kts 317°
2026-05-05 19:11 -52.18922 -72.15535 28366 ft 411 kts 317°
2026-05-05 19:11 -52.16808 -72.18593 28735 ft 413 kts 317°
2026-05-05 19:11 -52.14656 -72.21701 29101 ft 414 kts 317°
2026-05-05 19:12 -52.12489 -72.24827 29449 ft 416 kts 317°
2026-05-05 19:12 -52.10322 -72.27946 29925 ft 415 kts 317°
2026-05-05 19:12 -52.08161 -72.31056 30373 ft 414 kts 317°
2026-05-05 19:12 -52.06007 -72.34149 30804 ft 413 kts 317°
2026-05-05 19:13 -52.03859 -72.37230 31227 ft 412 kts 317°
2026-05-05 19:13 -52.01707 -72.40317 31662 ft 411 kts 317°
2026-05-05 19:13 -51.99563 -72.43388 32098 ft 410 kts 317°
2026-05-05 19:13 -51.97427 -72.46445 32515 ft 409 kts 317°
2026-05-05 19:14 -51.95294 -72.49489 32946 ft 408 kts 317°
2026-05-05 19:14 -51.93263 -72.52386 33352 ft 408 kts 317°
2026-05-05 19:14 -51.91135 -72.55415 33788 ft 407 kts 317°
2026-05-05 19:14 -51.89038 -72.58387 34145 ft 406 kts 317°
2026-05-05 19:15 -51.86913 -72.61392 34479 ft 406 kts 317°
2026-05-05 19:15 -51.84789 -72.64395 34790 ft 406 kts 317°
2026-05-05 19:15 -51.82537 -72.67163 35090 ft 408 kts 325°
2026-05-05 19:15 -51.80101 -72.69529 35381 ft 408 kts 326°
2026-05-05 19:16 -51.77658 -72.71878 35682 ft 409 kts 326°
2026-05-05 19:16 -51.75211 -72.74232 35811 ft 411 kts 326°
2026-05-05 19:16 -51.70251 -72.78994 35841 ft 416 kts 326°
2026-05-05 19:17 -51.65268 -72.83767 35841 ft 416 kts 326°
2026-05-05 19:17 -51.60284 -72.88530 35844 ft 417 kts 326°
2026-05-05 19:18 -51.55300 -72.93277 35848 ft 416 kts 326°
2026-05-05 19:18 -51.50342 -72.97972 35850 ft 416 kts 326°
2026-05-05 19:19 -51.45350 -73.02699 35858 ft 417 kts 326°
2026-05-05 19:19 -51.40362 -73.07416 35863 ft 416 kts 326°
2026-05-05 19:20 -51.35367 -73.12128 35867 ft 416 kts 326°
2026-05-05 19:20 -51.30377 -73.16822 35873 ft 416 kts 326°
2026-05-05 19:21 -51.25381 -73.21507 35881 ft 416 kts 326°
2026-05-05 19:21 -51.20387 -73.26167 35879 ft 416 kts 326°
2026-05-05 19:22 -51.15387 -73.30829 35867 ft 417 kts 326°
2026-05-05 19:22 -51.10404 -73.35478 35863 ft 418 kts 326°
2026-05-05 19:23 -51.05344 -73.40168 35873 ft 419 kts 326°
2026-05-05 19:23 -51.00338 -73.44800 35878 ft 419 kts 326°
2026-05-05 19:24 -50.95290 -73.49457 35891 ft 419 kts 326°
2026-05-05 19:24 -50.90244 -73.54105 35902 ft 419 kts 326°
2026-05-05 19:25 -50.85195 -73.58744 35908 ft 419 kts 326°
2026-05-05 19:25 -50.80176 -73.63350 35907 ft 419 kts 326°
2026-05-05 19:26 -50.75122 -73.67967 35918 ft 419 kts 326°
2026-05-05 19:26 -50.70075 -73.72571 35918 ft 419 kts 326°
2026-05-05 19:27 -50.65017 -73.77164 35917 ft 419 kts 326°
2026-05-05 19:27 -50.59957 -73.81741 35919 ft 419 kts 326°
2026-05-05 19:28 -50.54898 -73.86317 35921 ft 420 kts 326°
2026-05-05 19:28 -50.49838 -73.90889 35932 ft 419 kts 326°
2026-05-05 19:29 -50.44774 -73.95448 35926 ft 419 kts 326°
2026-05-05 19:29 -50.39703 -73.99853 35927 ft 422 kts 332°
2026-05-05 19:30 -50.33960 -74.02093 35925 ft 434 kts 352°
2026-05-05 19:30 -50.27878 -74.01585 35925 ft 439 kts 359°
2026-05-05 19:31 -50.21783 -74.00778 35927 ft 440 kts 359°
2026-05-05 19:31 -50.15680 -73.99964 35927 ft 440 kts 359°
2026-05-05 19:32 -50.09574 -73.99147 35931 ft 440 kts 359°
2026-05-05 19:32 -50.03463 -73.98334 35926 ft 440 kts 359°
2026-05-05 19:33 -49.97362 -73.97527 35932 ft 440 kts 359°
2026-05-05 19:33 -49.91251 -73.96730 35934 ft 440 kts 359°
2026-05-05 19:34 -49.85138 -73.95925 35940 ft 441 kts 359°
2026-05-05 19:35 -49.76022 -73.94744 35936 ft 440 kts 359°
2026-05-05 19:35 -49.69925 -73.93948 35936 ft 440 kts 359°
2026-05-05 19:36 -49.63824 -73.93154 35941 ft 440 kts 359°
2026-05-05 19:36 -49.57727 -73.92358 35934 ft 439 kts 359°
2026-05-05 19:37 -49.52650 -73.91700 35934 ft 440 kts 359°
2026-05-05 19:37 -49.46558 -73.90919 35936 ft 440 kts 359°
2026-05-05 19:38 -49.40455 -73.90132 35939 ft 440 kts 359°
2026-05-05 19:38 -49.34356 -73.89353 35941 ft 440 kts 358°
2026-05-05 19:39 -49.28252 -73.88577 35943 ft 440 kts 359°
2026-05-05 19:39 -49.22155 -73.87794 35942 ft 440 kts 358°
2026-05-05 19:40 -49.16049 -73.87007 35946 ft 440 kts 358°
2026-05-05 19:40 -49.09953 -73.86223 35953 ft 440 kts 358°
2026-05-05 19:41 -49.03853 -73.85448 35943 ft 439 kts 358°
2026-05-05 19:41 -48.97796 -73.84698 35944 ft 440 kts 358°
2026-05-05 19:42 -48.91696 -73.83928 35946 ft 440 kts 358°
2026-05-05 19:42 -48.85595 -73.83168 35949 ft 440 kts 358°
2026-05-05 19:43 -48.79495 -73.82399 35950 ft 440 kts 358°
2026-05-05 19:43 -48.73392 -73.81631 35953 ft 440 kts 358°
2026-05-05 19:44 -48.67290 -73.80864 35952 ft 440 kts 358°
2026-05-05 19:44 -48.61183 -73.80093 35952 ft 440 kts 358°
2026-05-05 19:45 -48.55082 -73.79337 35948 ft 440 kts 358°
2026-05-05 19:45 -48.48978 -73.78584 35951 ft 440 kts 358°
2026-05-05 19:46 -48.42863 -73.77833 35951 ft 440 kts 358°
2026-05-05 19:46 -48.36751 -73.77073 35946 ft 440 kts 358°
2026-05-05 19:47 -48.30652 -73.76319 35947 ft 440 kts 358°
2026-05-05 19:47 -48.24582 -73.75588 35944 ft 440 kts 358°
2026-05-05 19:48 -48.18475 -73.74838 35945 ft 440 kts 358°
2026-05-05 19:48 -48.12366 -73.74081 35949 ft 441 kts 358°
2026-05-05 19:49 -48.06255 -73.73338 35949 ft 440 kts 358°
2026-05-05 19:49 -48.00147 -73.72602 35952 ft 440 kts 358°
2026-05-05 19:50 -47.94033 -73.71863 35950 ft 440 kts 358°
2026-05-05 19:50 -47.87935 -73.71122 35948 ft 440 kts 358°
2026-05-05 19:51 -47.81839 -73.70390 35949 ft 439 kts 357°
2026-05-05 19:51 -47.75741 -73.69669 35951 ft 439 kts 357°
2026-05-05 19:52 -47.69685 -73.68933 35951 ft 440 kts 357°
2026-05-05 19:52 -47.63589 -73.68190 35954 ft 439 kts 357°
2026-05-05 19:53 -47.57503 -73.67466 35950 ft 439 kts 357°
2026-05-05 19:53 -47.51414 -73.66761 35953 ft 439 kts 357°
2026-05-05 19:54 -47.45321 -73.66043 35952 ft 439 kts 357°
2026-05-05 19:54 -47.39240 -73.65315 35957 ft 439 kts 357°
2026-05-05 19:55 -47.33148 -73.64585 35957 ft 439 kts 357°
2026-05-05 19:55 -47.27056 -73.63870 35960 ft 439 kts 357°
2026-05-05 19:56 -47.20971 -73.63151 35965 ft 438 kts 357°
2026-05-05 19:56 -47.14893 -73.62433 35961 ft 438 kts 357°
2026-05-05 19:57 -47.08862 -73.61734 35960 ft 438 kts 357°
2026-05-05 19:57 -47.02783 -73.61023 35962 ft 438 kts 357°
2026-05-05 19:58 -46.96713 -73.60400 35959 ft 435 kts 355°
2026-05-05 19:58 -46.90672 -73.60128 35968 ft 434 kts 354°
2026-05-05 19:59 -46.84635 -73.59949 35965 ft 433 kts 354°
2026-05-05 19:59 -46.78607 -73.59703 35964 ft 433 kts 354°
2026-05-05 20:00 -46.72573 -73.59412 35969 ft 433 kts 355°
2026-05-05 20:00 -46.66541 -73.59119 35971 ft 433 kts 355°
2026-05-05 20:01 -46.60545 -73.58838 35982 ft 430 kts 355°
2026-05-05 20:01 -46.54571 -73.58557 35982 ft 429 kts 355°
2026-05-05 20:02 -46.48621 -73.58281 35972 ft 427 kts 355°
2026-05-05 20:02 -46.42692 -73.58009 35972 ft 426 kts 355°
2026-05-05 20:03 -46.36806 -73.57724 35968 ft 426 kts 355°
2026-05-05 20:03 -46.30884 -73.57452 35956 ft 425 kts 355°
2026-05-05 20:04 -46.24966 -73.57184 35948 ft 425 kts 355°
2026-05-05 20:04 -46.19033 -73.56910 35948 ft 425 kts 355°
2026-05-05 20:05 -46.13133 -73.56636 35948 ft 424 kts 355°
2026-05-05 20:05 -46.07267 -73.56367 35949 ft 424 kts 355°
2026-05-05 20:06 -46.01362 -73.56101 35944 ft 424 kts 354°
2026-05-05 20:06 -45.95467 -73.55837 35944 ft 424 kts 354°
2026-05-05 20:07 -45.89566 -73.55563 35945 ft 424 kts 354°
2026-05-05 20:07 -45.83661 -73.55289 35944 ft 424 kts 354°
2026-05-05 20:08 -45.77760 -73.55019 35943 ft 424 kts 354°
2026-05-05 20:08 -45.71864 -73.54750 35938 ft 424 kts 354°
2026-05-05 20:09 -45.65963 -73.54490 35938 ft 424 kts 354°
2026-05-05 20:09 -45.60071 -73.54227 35936 ft 424 kts 354°
2026-05-05 20:10 -45.54178 -73.53953 35940 ft 423 kts 354°
2026-05-05 20:10 -45.48319 -73.53693 35939 ft 423 kts 354°
2026-05-05 20:11 -45.42439 -73.53435 35945 ft 423 kts 354°
2026-05-05 20:11 -45.36553 -73.53175 35944 ft 422 kts 354°
2026-05-05 20:12 -45.30681 -73.52911 35940 ft 422 kts 354°
2026-05-05 20:12 -45.24805 -73.52648 35938 ft 422 kts 354°
2026-05-05 20:13 -45.18947 -73.52386 35928 ft 421 kts 354°
2026-05-05 20:13 -45.13095 -73.52037 35934 ft 422 kts 356°
2026-05-05 20:14 -45.07265 -73.51301 35935 ft 423 kts 358°
2026-05-05 20:14 -45.01401 -73.50446 35936 ft 423 kts 358°
2026-05-05 20:15 -44.95548 -73.49661 35931 ft 422 kts 358°
2026-05-05 20:15 -44.89698 -73.48944 35927 ft 421 kts 358°
2026-05-05 20:16 -44.83856 -73.48229 35926 ft 421 kts 358°
2026-05-05 20:16 -44.78013 -73.47507 35915 ft 421 kts 358°
2026-05-05 20:17 -44.72176 -73.46780 35913 ft 421 kts 358°
2026-05-05 20:17 -44.66333 -73.46058 35901 ft 421 kts 358°
2026-05-05 20:18 -44.60493 -73.45341 35903 ft 421 kts 358°
2026-05-05 20:18 -44.54650 -73.44617 35898 ft 421 kts 358°
2026-05-05 20:19 -44.48800 -73.43901 35906 ft 422 kts 358°
2026-05-05 20:19 -44.42957 -73.43179 35901 ft 422 kts 358°
2026-05-05 20:20 -44.37110 -73.42451 35901 ft 422 kts 358°
2026-05-05 20:20 -44.31306 -73.41734 35894 ft 422 kts 358°
2026-05-05 20:21 -44.25456 -73.41020 35892 ft 422 kts 358°
2026-05-05 20:21 -44.19610 -73.40323 35886 ft 422 kts 358°
2026-05-05 20:22 -44.13764 -73.39620 35885 ft 422 kts 358°
2026-05-05 20:22 -44.07916 -73.38903 35881 ft 422 kts 358°
2026-05-05 20:23 -44.02074 -73.38187 35883 ft 421 kts 358°
2026-05-05 20:23 -43.96235 -73.37482 35879 ft 421 kts 358°
2026-05-05 20:24 -43.91385 -73.36903 35881 ft 421 kts 358°
2026-05-05 20:24 -43.85551 -73.36198 35879 ft 420 kts 358°
2026-05-05 20:25 -43.79728 -73.35491 35881 ft 420 kts 358°
2026-05-05 20:25 -43.72928 -73.34685 35876 ft 419 kts 358°
2026-05-05 20:26 -43.68101 -73.34110 35874 ft 419 kts 358°
2026-05-05 20:26 -43.62300 -73.33415 35874 ft 418 kts 357°
2026-05-05 20:27 -43.56508 -73.32724 35868 ft 417 kts 357°
2026-05-05 20:27 -43.50763 -73.32037 35867 ft 417 kts 357°
2026-05-05 20:28 -43.44981 -73.31344 35862 ft 416 kts 357°
2026-05-05 20:28 -43.39209 -73.30657 35863 ft 416 kts 357°
2026-05-05 20:29 -43.33444 -73.29972 35769 ft 416 kts 357°
2026-05-05 20:29 -43.30568 -73.29631 35514 ft 414 kts 357°
2026-05-05 20:29 -43.27705 -73.29292 34869 ft 414 kts 358°
2026-05-05 20:29 -43.24825 -73.28953 34118 ft 415 kts 358°
2026-05-05 20:30 -43.21939 -73.28612 33221 ft 417 kts 358°
2026-05-05 20:30 -43.19046 -73.28271 32413 ft 417 kts 358°
2026-05-05 20:30 -43.16150 -73.27929 31545 ft 418 kts 359°
2026-05-05 20:30 -43.13253 -73.27591 30896 ft 416 kts 359°
2026-05-05 20:31 -43.10396 -73.27269 30396 ft 410 kts 359°
2026-05-05 20:31 -43.07600 -73.26971 29857 ft 406 kts 359°
2026-05-05 20:31 -43.04798 -73.26682 29270 ft 401 kts 359°
2026-05-05 20:31 -43.02037 -73.26401 28754 ft 395 kts 359°
2026-05-05 20:32 -42.99316 -73.26122 28235 ft 390 kts 359°
2026-05-05 20:32 -42.96630 -73.25843 27725 ft 385 kts 359°
2026-05-05 20:32 -42.93967 -73.25563 27221 ft 381 kts 359°
2026-05-05 20:32 -42.91332 -73.25283 26728 ft 378 kts 359°
2026-05-05 20:33 -42.88724 -73.25008 26242 ft 375 kts 359°
2026-05-05 20:33 -42.86132 -73.24736 25769 ft 372 kts 359°
2026-05-05 20:33 -42.83562 -73.24469 25298 ft 370 kts 359°
2026-05-05 20:33 -42.81001 -73.24204 24838 ft 368 kts 359°
2026-05-05 20:34 -42.78452 -73.23937 24388 ft 366 kts 360°
2026-05-05 20:34 -42.75913 -73.23766 23941 ft 365 kts 355°
2026-05-05 20:34 -42.73369 -73.23945 23500 ft 367 kts 352°
2026-05-05 20:34 -42.70828 -73.24248 22996 ft 366 kts 351°
2026-05-05 20:35 -42.68303 -73.24570 22477 ft 364 kts 351°
2026-05-05 20:35 -42.65786 -73.24902 21997 ft 362 kts 351°
2026-05-05 20:35 -42.63292 -73.25238 21519 ft 359 kts 351°
2026-05-05 20:35 -42.60812 -73.25578 21011 ft 357 kts 351°
2026-05-05 20:36 -42.58344 -73.25920 20507 ft 356 kts 352°
2026-05-05 20:36 -42.55866 -73.25979 19997 ft 356 kts 358°
2026-05-05 20:36 -42.53396 -73.25911 19493 ft 354 kts 358°
2026-05-05 20:36 -42.50936 -73.25843 19013 ft 353 kts 358°
2026-05-05 20:37 -42.48492 -73.25780 18516 ft 351 kts 358°
2026-05-05 20:37 -42.46879 -73.25742 18193 ft 349 kts 358°
2026-05-05 20:37 -42.46176 -73.25726 18042 ft 349 kts 358°
2026-05-05 20:38 -42.44112 -73.25751 17563 ft 347 kts 357°
2026-05-05 20:38 -42.41771 -73.25720 17034 ft 345 kts 358°
2026-05-05 20:38 -42.39377 -73.25679 16499 ft 343 kts 358°
2026-05-05 20:38 -42.37002 -73.25641 15982 ft 341 kts 358°
2026-05-05 20:39 -42.34642 -73.25694 15488 ft 337 kts 353°
2026-05-05 20:39 -42.32322 -73.25978 14999 ft 334 kts 352°
2026-05-05 20:39 -42.30049 -73.26282 14540 ft 331 kts 352°
2026-05-05 20:39 -42.27766 -73.26589 14093 ft 328 kts 352°
2026-05-05 20:40 -42.25516 -73.26956 13646 ft 324 kts 346°
2026-05-05 20:40 -42.23357 -73.27752 13156 ft 319 kts 341°
2026-05-05 20:40 -42.21252 -73.28693 12623 ft 318 kts 340°
2026-05-05 20:40 -42.19165 -73.29651 12096 ft 317 kts 340°
2026-05-05 20:41 -42.17084 -73.30620 11576 ft 316 kts 340°
2026-05-05 20:41 -42.15015 -73.31598 11066 ft 315 kts 340°
2026-05-05 20:41 -42.12949 -73.32586 10575 ft 314 kts 340°
2026-05-05 20:41 -42.10912 -73.33576 10295 ft 306 kts 340°
2026-05-05 20:42 -42.08947 -73.34520 10173 ft 295 kts 343°
2026-05-05 20:42 -42.06983 -73.35160 10047 ft 285 kts 347°
2026-05-05 20:42 -42.05075 -73.35706 9890 ft 277 kts 348°
2026-05-05 20:42 -42.03176 -73.35987 9621 ft 274 kts
2026-05-05 20:43 -42.01353 -73.35312 9417 ft 274 kts 23°
2026-05-05 20:43 -41.99615 -73.34213 9295 ft 276 kts 24°
2026-05-05 20:43 -41.97883 -73.33107 9166 ft 276 kts 24°
2026-05-05 20:43 -41.96176 -73.32012 9036 ft 275 kts 24°
2026-05-05 20:44 -41.94448 -73.30900 8902 ft 275 kts 23°
2026-05-05 20:44 -41.92727 -73.29793 8769 ft 274 kts 23°
2026-05-05 20:44 -41.91004 -73.28687 8635 ft 274 kts 23°
2026-05-05 20:44 -41.89286 -73.27585 8505 ft 273 kts 23°
2026-05-05 20:45 -41.85858 -73.25395 8244 ft 273 kts 23°
2026-05-05 20:45 -41.84125 -73.24295 7835 ft 276 kts 23°
2026-05-05 20:45 -41.82396 -73.23196 7371 ft 279 kts 24°
2026-05-05 20:46 -41.80655 -73.22088 7107 ft 273 kts 24°
2026-05-05 20:46 -41.78961 -73.21007 6564 ft 267 kts 24°
2026-05-05 20:46 -41.77294 -73.19944 5999 ft 264 kts 24°
2026-05-05 20:46 -41.75642 -73.18894 5381 ft 262 kts 24°
2026-05-05 20:47 -41.74001 -73.17851 4849 ft 259 kts 25°
2026-05-05 20:47 -41.72385 -73.16821 4349 ft 254 kts 25°
2026-05-05 20:47 -41.70956 -73.15914 4207 ft 238 kts 25°
2026-05-05 20:47 -41.69517 -73.15003 4097 ft 220 kts 26°
2026-05-05 20:48 -41.68200 -73.14171 4004 ft 198 kts 26°
2026-05-05 20:48 -41.67004 -73.13411 3931 ft 188 kts 26°
2026-05-05 20:48 -41.65829 -73.12665 3847 ft 186 kts 26°
2026-05-05 20:48 -41.64659 -73.11924 3765 ft 186 kts 26°
2026-05-05 20:49 -41.63489 -73.11182 3684 ft 185 kts 26°
2026-05-05 20:49 -41.62329 -73.10449 3612 ft 184 kts 24°
2026-05-05 20:49 -41.61082 -73.10074 3479 ft 186 kts
2026-05-05 20:49 -41.59793 -73.09977 3265 ft 185 kts
2026-05-05 20:50 -41.58520 -73.09921 3033 ft 185 kts
2026-05-05 20:50 -41.57243 -73.09873 2816 ft 181 kts
2026-05-05 20:50 -41.56000 -73.09829 2557 ft 176 kts
2026-05-05 20:50 -41.54824 -73.09788 2326 ft 159 kts
2026-05-05 20:51 -41.53785 -73.09753 2117 ft 143 kts
2026-05-05 20:51 -41.52804 -73.09716 1929 ft 140 kts
2026-05-05 20:51 -41.51851 -73.09681 1746 ft 141 kts
2026-05-05 20:51 -41.50869 -73.09645 1554 ft 141 kts
2026-05-05 20:52 -41.49883 -73.09609 1358 ft 142 kts
2026-05-05 20:52 -41.48902 -73.09574 1139 ft 143 kts
2026-05-05 20:52 -41.47904 -73.09539 925 ft 144 kts
2026-05-05 20:52 -41.46897 -73.09503 715 ft 145 kts
2026-05-05 20:53 -41.45886 -73.09473 486 ft 145 kts
2026-05-05 20:53 -41.44879 -73.09435 318 ft 145 kts
2026-05-05 20:53 -41.44022 -73.09404 291 ft 85 kts
2026-05-05 20:53 -41.43696 -73.09390 298 ft 28 kts
2026-05-05 20:54 -41.43550 -73.09385 302 ft 6 kts
2026-05-05 20:54 -41.43495 -73.09389 302 ft 10 kts 335°
2026-05-05 20:54 -41.43470 -73.09484 302 ft 8 kts 268°
2026-05-05 20:54 -41.43472 -73.09559 305 ft 4 kts 269°
2026-05-05 20:55 -41.43461 -73.09598 302 ft 6 kts 328°
2026-05-05 20:55 -41.43416 -73.09600 301 ft 7 kts
2026-05-05 20:55 -41.43366 -73.09597 303 ft 4 kts
2026-05-05 20:55 -41.43335 -73.09601 303 ft 4 kts 334°
2026-05-05 20:56 -41.43330 -73.09633 301 ft 3 kts 258°
2026-05-05 20:56 -41.43331 -73.09658 301 ft 2 kts 270°
2026-05-05 20:56 -41.43331 -73.09675 301 ft 2 kts 270°
2026-05-05 20:56 -41.43330 -73.09712 301 ft 7 kts 271°
2026-05-05 20:57 -41.43330 -73.09736 303 ft 1 kts 270°
2026-05-05 20:57 -41.43330 -73.09743 302 ft 0 kts 271°
2026-05-05 20:57 -41.43330 -73.09745 302 ft 0 kts 271°